Wind_Speed
7 7 7 7 7 7 7 7 7 7 7 7 7 7 7 8 8 9 9 9 9 10 10 11 11 12 12 12 12 11 13 12 9 7 6 5 5 6 8 7 3 6 11 9 6 7 6 3 4 5 4 3 3 2 2 2 2 2 3 2 2 3 3 5 7 6 4 3 5 3 1 1 6 5 2 2 1 5 5 4 5 6 8 12 14 12 8 6
8 8 8 7 7 7 7 7 7 7 7 7 7 7 7 7 8 8 9 9 9 9 9 10 11 11 11 11 10 11 13 11 8 7 6 1 1 4 6 6 4 4 10 10 8 8 5 1 3 5 4 2 2 2 2 1 2 3 3 1 3 5 5 6 7 6 4 4 4 5 2 2 6 4 1 3 5 5 7 7 3 8 12 14 18 18 13 10
8 9 9 8 8 8 8 8 8 7 7 7 6 7 7 7 8 8 9 9 9 10 10 10 10 11 11 10 10 11 12 9 4 5 4 3 3 2 3 5 5 5 10 9 7 7 4 4 7 5 4 1 1 2 2 0 1 1 3 2 6 7 5 5 7 8 7 4 3 6 3 2 5 3 0 3 6 6 9 10 5 9 13 12 13 14 14 12
9 9 10 9 9 9 9 9 9 9 9 8 7 7 7 7 7 8 9 9 10 10 11 11 11 11 10 9 9 10 10 6 2 5 6 2 5 3 2 5 7 7 10 8 5 6 4 6 7 4 3 0 3 2 0 2 1 1 4 4 6 4 3 6 9 9 7 3 4 5 4 6 5 2 2 2 4 8 11 10 10 13 13 11 9 9 11 12
10 10 10 10 9 9 9 9 9 10 10 10 9 9 8 8 8 8 9 9 9 10 11 11 11 11 10 8 7 8 8 5 3 4 4 4 6 4 3 3 8 8 10 9 6 7 6 7 6 5 3 1 2 2 2 3 3 2 4 6 5 4 3 7 6 6 4 3 3 4 6 7 2 1 5 6 5 10 11 8 11 14 11 9 8 5 7 9
12 11 10 10 9 9 9 9 9 9 10 10 10 10 10 10 9 10 10 10 10 10 11 11 11 11 9 8 5 4 4 1 5 4 5 9 7 5 2 3 8 10 11 10 9 9 6 5 4 2 2 0 2 3 4 2 2 2 4 4 5 5 5 5 2 3 4 3 3 3 5 4 4 7 6 10 11 16 17 9 9 11 9 9 7 4 6 9
12 11 10 10 10 10 9 10 9 9 10 10 10 10 10 11 11 11 11 11 11 10 11 11 11 11 9 6 3 2 4 5 11 9 12 11 8 5 2 5 8 11 12 12 11 8 5 6 3 4 3 1 3 5 4 1 1 2 4 4 5 5 7 6 1 2 4 5 7 2 6 8 6 8 5 8 14 19 20 12 9 10 9 8 7 7 8 10
11 11 10 10 10 10 10 10 10 10 10 10 11 10 11 11 11 12 12 13 12 11 12 11 11 10 8 3 1 3 1 9 16 13 14 11 8 6 5 7 10 12 13 14 12 9 6 6 5 4 2 3 4 4 3 1 0 4 7 4 2 3 6 6 4 5 6 7 6 2 8 15 11 4 9 18 17 16 18 15 10 10 9 8 9 12 11 11
10 11 10 10 10 10 10 11 11 11 12 12 12 12 12 12 12 13 13 14 13 12 12 11 10 8 6 1 3 2 5 11 11 9 10 10 9 7 7 8 11 14 13 12 12 11 7 5 6 5 4 4 5 4 3 2 3 7 7 4 3 6 6 6 6 7 7 6 5 4 12 16 8 1 10 24 18 11 13 14 9 6 9 9 10 12 11 11
10 11 10 9 9 10 10 11 12 12 13 13 13 13 14 14 14 14 14 15 14 13 12 11 10 7 5 1 2 4 8 8 7 7 8 9 9 8 9 9 12 15 14 11 12 13 8 7 7 5 4 3 4 4 3 5 4 4 3 5 6 8 7 4 7 7 5 6 7 9 15 13 3 2 10 18 7 2 6 10 7 3 9 11 9 10 9 10
10 10 9 9 9 9 10 11 12 12 13 13 14 14 15 16 16 16 16 16 15 14 13 11 9 6 3 3 3 7 6 5 8 9 9 10 9 8 9 10 11 15 14 10 14 17 10 9 10 6 2 2 3 2 3 5 1 2 1 6 8 7 8 5 7 9 4 5 7 11 11 10 2 2 14 18 3 2 5 11 10 6 10 12 10 10 7 9
9 9 9 9 9 9 10 12 13 12 13 13 15 15 15 16 16 17 17 17 17 15 13 11 7 4 2 1 7 12 10 8 9 9 11 11 9 8 9 9 10 13 13 10 13 18 12 10 12 5 3 4 2 1 4 3 1 1 3 5 9 8 9 7 6 5 5 4 5 9 3 7 5 9 19 17 4 2 5 9 13 10 10 11 9 9 7 9
8 8 8 8 9 9 11 13 13 13 14 16 16 16 15 16 16 17 17 18 17 14 12 10 7 4 2 3 6 11 14 13 12 12 13 11 9 7 7 8 9 11 12 9 8 13 13 11 11 5 3 5 2 2 2 3 2 2 2 1 6 7 9 7 2 2 3 5 6 6 3 6 9 15 19 11 2 3 6 9 11 11 10 8 8 8 8 10
8 8 8 9 9 11 13 15 15 15 16 18 18 17 17 17 17 17 16 16 15 12 10 7 5 4 3 6 8 6 10 12 13 14 13 12 8 5 5 7 9 10 10 8 4 6 12 13 8 3 1 3 2 1 2 5 3 3 1 0 2 2 6 7 1 4 1 3 7 4 5 8 11 17 15 5 2 1 7 11 9 10 11 9 9 8 10 10
8 8 9 9 10 12 14 16 17 16 18 19 19 19 18 16 15 14 13 12 10 8 7 5 6 5 1 7 9 6 7 9 10 12 12 12 9 5 5 8 9 9 7 7 5 5 11 11 6 3 2 1 0 1 3 4 3 2 2 3 1 3 5 9 4 6 6 5 4 5 5 7 11 16 13 3 4 1 7 11 9 11 14 13 12 10 11 12
8 8 9 9 11 13 14 17 18 18 19 20 21 20 15 12 11 10 9 6 3 5 6 5 8 6 1 5 5 4 5 5 6 7 8 11 9 6 8 10 7 8 7 6 6 7 10 8 3 2 1 1 2 2 3 4 4 2 2 5 4 4 3 7 7 6 7 3 2 6 6 6 7 11 12 4 1 4 10 15 13 14 16 15 14 12 12 12
8 8 9 10 11 13 14 17 18 19 20 20 22 18 9 8 8 6 4 4 7 8 7 5 8 5 2 4 3 4 3 3 4 3 4 7 8 10 11 8 6 8 8 6 7 7 5 3 1 0 2 1 2 4 3 2 5 3 2 4 4 5 4 4 7 6 2 4 5 6 7 10 11 10 13 13 11 8 13 19 16 14 15 14 13 14 14 12
8 9 10 11 12 13 14 16 18 20 20 20 21 13 4 6 6 7 8 11 11 9 6 3 5 2 4 4 3 3 1 2 3 3 4 7 9 13 10 7 6 9 8 5 3 2 2 2 2 1 2 1 2 4 2 7 8 6 4 4 4 4 4 4 6 5 6 6 6 4 8 13 14 13 14 17 15 11 14 17 16 16 16 16 14 13 15 13
9 9 10 11 12 13 15 16 18 20 20 20 19 8 2 4 4 6 6 7 6 3 2 2 4 2 3 4 3 1 3 4 4 4 7 10 12 11 8 7 7 7 5 2 0 1 1 2 4 1 3 5 5 7 11 12 7 4 4 4 5 6 6 7 8 6 6 11 10 9 15 15 13 14 13 15 14 13 15 15 14 15 15 15 13 12 14 14
10 9 10 12 12 13 14 15 17 19 19 20 18 7 1 4 3 2 3 1 3 4 1 5 7 3 6 4 0 2 3 3 2 3 9 12 13 11 6 4 5 5 3 4 3 1 3 3 3 5 9 10 10 10 12 7 3 1 2 5 6 7 9 8 9 9 3 5 9 10 17 17 12 13 13 14 14 16 20 16 12 14 16 15 13 15 15 14
11 10 10 12 12 13 14 15 16 18 17 17 15 6 2 1 2 3 5 5 9 9 7 9 9 8 11 5 2 4 2 1 2 3 9 11 11 8 1 2 4 1 1 3 3 1 3 4 7 12 10 6 5 5 5 4 4 5 5 6 6 6 11 9 9 11 2 1 6 7 15 17 13 14 14 15 16 18 19 13 11 15 17 16 15 16 13 11
10 10 10 13 13 13 14 15 16 16 15 14 12 6 3 1 0 2 1 4 9 9 9 9 5 9 14 7 2 2 2 2 2 1 8 9 4 4 1 4 5 4 1 3 2 1 2 4 11 13 5 2 2 4 3 4 5 6 4 4 5 4 8 8 7 8 2 1 6 8 14 14 14 18 18 18 16 15 15 11 12 15 16 18 14 9 9 11
11 10 10 12 12 13 14 16 15 14 12 11 9 5 1 1 1 1 1 1 7 6 5 6 4 6 8 6 5 5 2 5 3 3 9 9 2 3 4 4 5 3 2 4 5 4 3 6 12 11 4 3 3 2 2 3 3 5 4 4 6 5 5 6 5 5 3 4 6 10 14 11 12 15 14 14 12 11 14 13 15 16 15 17 12 7 9 11
9 8 9 10 11 12 13 16 14 10 10 7 7 5 3 1 2 2 0 1 4 6 4 5 4 4 4 3 5 8 5 4 2 3 9 10 4 3 4 5 5 3 5 8 9 6 6 6 4 3 5 7 7 4 3 5 5 5 6 5 9 10 9 9 5 6 6 5 4 7 12 8 5 6 6 6 4 7 10 13 16 13 6 8 10 9 7 5
8 7 6 7 9 10 11 13 9 6 8 3 3 6 5 2 1 2 1 1 3 6 4 2 2 2 3 2 3 6 3 2 2 3 5 7 5 4 2 2 4 4 7 6 5 6 7 5 4 4 3 5 5 6 6 7 5 4 5 11 15 13 11 10 7 7 5 4 3 6 8 6 1 1 5 4 4 6 7 12 15 6 4 3 7 9 3 4
10 8 6 7 9 9 8 6 4 6 8 2 2 7 5 4 1 1 2 3 3 5 1 1 1 1 2 2 1 3 3 1 2 1 2 4 3 3 2 1 1 3 5 5 2 3 5 3 3 5 4 6 5 6 6 8 4 5 5 10 13 11 9 9 6 3 1 3 3 3 2 7 3 3 8 5 3 10 11 12 11 6 6 7 7 7 4 5
13 12 10 10 9 6 3 1 3 6 4 2 4 6 6 6 2 1 1 3 4 2 2 1 1 2 2 1 2 3 2 3 2 2 1 1 1 1 2 3 1 1 4 3 1 3 4 1 5 5 5 6 5 6 6 9 5 5 4 4 6 7 7 5 3 3 3 3 4 1 3 6 8 5 6 3 5 11 13 10 10 8 8 8 7 5 6 6
13 14 14 14 10 6 3 2 3 4 2 3 6 6 7 7 2 1 2 2 4 1 2 1 0 2 0 1 3 3 1 2 2 1 3 1 1 2 0 6 6 4 3 5 3 4 4 5 5 6 5 4 6 5 7 11 5 5 3 4 5 4 4 4 3 3 2 3 4 2 4 3 10 4 1 0 5 9 11 9 9 9 8 9 7 5 8 5
10 10 11 13 11 7 5 4 5 4 4 5 5 6 8 7 3 3 3 2 2 2 1 1 1 1 2 3 4 2 1 2 1 3 3 2 1 3 1 5 5 4 2 3 5 5 1 4 7 8 6 6 7 5 8 11 5 4 5 5 4 4 3 4 3 2 2 3 4 5 5 3 10 4 3 1 2 6 8 6 6 7 8 8 6 6 4 4
7 8 8 9 9 7 5 5 7 6 7 6 5 8 7 4 2 3 2 3 1 1 0 1 0 1 2 3 3 2 1 1 1 2 3 1 2 4 1 3 5 3 2 3 5 5 1 0 2 5 4 5 4 2 3 7 5 3 6 5 5 4 4 3 1 3 1 5 5 9 10 5 6 4 3 3 3 5 4 4 6 8 8 8 4 5 4 4
4 4 6 7 8 6 3 3 6 6 8 7 4 6 5 2 3 3 6 2 1 2 0 1 2 2 3 2 1 1 0 1 1 2 1 1 2 4 1 1 3 3 3 4 5 3 1 1 2 4 2 3 6 3 2 2 4 4 4 3 3 3 4 4 4 3 1 6 4 6 7 6 6 5 1 4 6 6 3 5 10 10 10 8 6 6 6 6
4 4 3 5 7 8 5 3 2 3 6 5 2 2 2 1 1 4 3 3 2 2 1 1 1 1 2 1 1 2 1 1 1 2 3 2 1 2 3 4 3 1 3 2 3 4 1 4 4 4 1 4 5 2 3 4 3 4 3 2 1 3 3 3 3 0 3 6 4 2 2 4 9 7 3 9 13 9 6 5 8 9 9 7 9 8 6 7
5 5 4 5 6 8 9 7 2 1 4 6 1 3 3 2 5 3 1 2 2 1 1 1 1 2 2 1 2 3 1 2 3 3 2 3 1 3 5 5 5 1 3 3 1 4 4 4 1 1 3 4 8 5 2 2 4 6 5 5 3 1 1 3 3 2 4 5 3 1 2 3 8 6 7 13 14 9 2 3 6 6 5 6 6 6 6 7
6 6 7 7 7 8 10 10 6 2 5 7 3 3 2 7 5 2 3 5 3 2 1 2 3 2 1 1 4 3 2 3 3 3 1 2 1 3 5 5 5 3 1 2 1 2 4 7 4 6 3 5 10 8 5 4 5 6 5 5 4 4 4 4 4 4 6 4 2 2 2 3 4 3 6 9 7 6 4 3 4 3 3 3 3 5 8 9
7 7 7 8 10 10 10 11 9 5 7 6 3 2 6 7 2 1 4 4 2 3 3 1 3 2 2 2 4 2 3 4 1 3 2 2 3 4 3 4 5 5 3 2 2 2 4 8 6 3 1 8 9 4 4 6 2 3 3 4 2 4 5 3 4 5 4 3 3 2 3 5 4 6 9 7 4 4 5 4 5 6 5 4 5 8 9 10
9 8 9 10 12 13 13 13 11 10 9 5 1 5 7 5 3 3 4 1 1 2 2 3 2 0 4 2 2 3 1 3 0 1 2 3 3 4 4 4 6 9 7 4 3 2 4 7 3 2 1 6 6 2 3 3 2 2 3 3 4 4 5 2 5 1 1 4 5 4 6 6 4 10 9 0 2 3 5 6 6 7 7 8 9 9 9 10
8 7 7 10 13 14 15 15 15 13 8 3 4 7 5 3 5 5 3 1 1 3 2 3 2 2 3 3 2 2 1 1 1 1 2 2 3 4 5 4 5 11 10 4 3 4 4 6 3 3 3 4 2 1 1 1 3 5 3 4 2 2 3 2 2 2 1 7 5 5 11 9 4 8 6 3 2 4 5 6 8 9 10 11 11 11 11 10
4 3 5 11 16 15 14 16 18 14 5 2 8 10 4 3 4 4 4 3 1 1 2 3 4 2 2 3 3 2 2 1 0 1 2 2 3 4 4 4 3 5 5 1 1 3 1 4 5 2 4 2 3 2 2 3 1 4 3 2 2 2 2 1 2 2 4 8 5 6 11 9 6 9 8 10 10 5 6 7 10 12 12 12 11 11 11 9
3 2 2 7 12 15 17 20 19 10 3 3 9 9 4 4 3 3 4 3 1 1 2 4 4 2 2 3 3 3 2 3 1 1 2 3 4 3 3 3 1 1 3 2 3 3 1 2 4 1 1 0 3 1 3 2 1 2 1 2 1 3 3 2 3 2 4 8 7 7 8 6 6 7 7 11 8 8 8 8 9 10 11 11 9 9 9 8
4 2 1 2 5 15 20 19 13 5 4 6 8 6 2 2 2 2 3 3 2 2 3 4 4 4 4 3 3 3 2 4 4 3 3 2 3 3 1 1 1 2 3 2 2 1 2 2 4 1 2 1 1 4 6 6 4 1 1 3 2 2 1 1 2 2 3 7 7 7 8 6 4 3 5 7 8 10 9 9 8 8 10 10 10 10 9 10
1 1 1 3 5 18 21 13 6 4 5 6 7 7 3 1 2 2 1 3 3 2 0 3 4 4 3 2 3 2 1 3 4 3 4 3 3 4 1 1 1 1 2 3 1 2 0 2 3 2 3 4 5 6 6 7 6 5 4 5 5 5 3 4 6 4 3 5 5 7 8 5 3 5 7 6 10 10 9 10 8 8 10 9 9 9 9 9
1 2 0 1 12 22 15 6 4 3 4 5 4 4 2 1 2 2 1 1 2 2 1 1 3 3 3 3 4 3 2 3 4 4 4 4 5 6 2 4 2 2 0 1 3 3 2 2 3 6 6 6 8 6 5 6 4 3 3 3 3 3 3 6 7 4 3 4 4 6 7 3 3 4 3 8 11 8 8 9 8 7 8 8 9 9 9 8
1 1 1 4 19 22 9 4 5 3 4 3 2 2 1 1 2 2 1 1 1 2 0 1 3 4 4 5 4 4 4 4 6 7 6 4 5 4 4 5 2 2 1 2 3 1 2 2 2 5 5 4 7 6 0 2 2 1 2 3 3 4 5 7 6 3 3 5 5 7 7 3 2 3 4 11 10 8 9 9 8 7 6 7 8 9 9 9
1 1 2 2 14 17 7 4 6 5 5 4 4 6 4 2 3 4 3 2 2 2 1 2 3 3 4 3 2 3 4 3 5 6 5 4 4 1 5 6 3 2 1 1 2 2 1 1 2 3 3 3 5 6 4 3 1 1 3 3 3 4 6 5 3 2 3 5 7 8 6 2 2 5 5 7 9 9 9 8 7 6 5 5 6 6 6 7
2 1 3 3 3 5 4 2 3 5 5 5 7 8 7 4 3 4 4 4 3 3 2 3 2 1 2 1 0 2 3 3 3 3 0 2 4 1 5 7 4 1 0 2 2 1 1 1 2 4 5 5 6 6 3 2 1 1 2 4 3 3 5 4 3 4 4 6 8 8 6 4 3 7 7 6 7 7 7 6 6 5 3 2 3 3 3 4
1 0 2 3 3 1 1 0 1 3 4 4 5 6 9 9 4 2 4 4 5 4 3 4 2 2 3 3 3 5 6 6 5 4 3 3 3 1 2 2 3 1 1 4 6 2 0 2 4 7 9 9 9 8 4 4 5 5 6 7 7 7 6 4 3 5 6 7 7 8 10 10 9 10 7 4 6 4 4 4 4 3 2 2 2 2 2 3
1 1 1 0 2 1 2 1 1 2 3 3 3 4 7 9 6 2 3 3 3 2 2 4 3 4 5 4 4 6 6 7 7 6 7 6 3 2 2 1 3 4 2 2 3 2 1 3 5 9 11 10 11 11 9 8 9 9 10 11 12 11 9 9 10 10 9 9 7 9 11 12 11 9 3 3 3 3 3 3 2 1 1 1 2 3 4 5
0 1 1 0 0 2 3 2 1 2 3 3 1 3 5 6 5 4 2 1 1 0 1 2 4 7 8 6 5 4 4 5 5 4 3 3 1 2 3 1 2 5 4 2 2 2 2 4 6 9 11 10 10 11 7 6 7 7 9 10 11 12 12 13 14 13 11 11 11 11 13 16 13 6 2 3 3 2 3 1 1 1 2 2 2 4 5 6
1 0 2 2 1 1 1 1 3 2 3 4 2 3 6 7 8 6 1 1 3 1 2 4 5 6 6 6 4 3 3 4 4 4 3 2 2 1 1 2 0 3 5 3 3 0 2 4 5 5 8 8 9 9 7 7 9 9 10 10 11 14 16 16 16 15 14 15 16 15 18 18 10 1 6 4 2 1 3 2 2 2 3 3 3 4 4 5
1 1 1 2 2 0 2 2 2 2 2 3 4 5 6 8 10 5 1 2 5 4 2 4 7 4 2 3 4 4 3 1 4 6 1 2 3 1 1 2 1 2 4 2 2 2 2 3 3 3 4 7 9 10 9 9 10 11 11 11 14 17 17 17 17 16 16 17 16 16 18 13 1 4 4 3 1 0 1 2 4 4 3 3 4 5 5 5
2 2 2 2 1 1 1 1 1 2 1 3 4 4 5 6 5 2 1 0 1 0 2 2 5 5 1 1 2 2 1 4 3 1 2 1 3 1 1 1 1 2 2 0 1 3 2 2 4 4 4 7 9 10 10 10 11 11 12 15 20 19 16 15 15 14 13 13 13 13 11 5 3 2 1 2 2 1 1 2 4 4 4 3 4 5 5 5
2 2 2 3 1 1 2 1 1 2 2 2 2 2 2 1 1 1 0 2 4 4 5 4 4 4 2 2 0 1 1 0 2 2 1 2 4 3 3 3 3 2 2 1 1 2 2 3 3 4 5 7 9 7 4 6 9 11 11 14 17 17 15 15 14 13 10 6 7 9 5 1 3 3 1 1 1 1 1 3 4 4 4 4 4 5 5 6
Wind_Direction
2 360 358 3 0 358 1 1 2 360 0 358 355 355 352 353 348 347 347 348 348 347 351 350 353 357 358 2 0 352 341 328 315 289 263 276 271 245 250 271 281 214 209 203 187 169 135 112 136 128 125 86 13 338 5 8 87 70 89 124 228 203 203 188 190 199 192 256 267 277 155 152 297 292 289 318 281 270 267 250 262 275 255 243 253 262 269 263
354 351 348 349 348 349 348 345 348 347 349 348 347 346 345 345 338 338 336 337 339 337 342 343 344 347 352 359 357 352 339 325 310 276 255 278 288 257 252 249 254 212 197 196 197 177 141 149 151 101 75 61 348 353 8 330 91 96 119 156 229 207 211 196 187 194 208 238 255 273 259 208 262 271 5 288 279 301 289 273 254 270 265 258 258 254 251 238
350 349 345 341 342 344 339 335 335 333 335 335 334 333 334 334 331 330 328 328 328 329 332 333 334 336 345 351 354 352 336 326 309 248 195 88 30 335 275 231 222 196 193 198 202 190 164 166 154 105 58 61 331 13 29 342 177 158 136 202 240 217 225 230 208 209 222 240 284 286 286 236 246 240 147 249 281 291 269 268 254 256 261 259 256 244 235 225
347 346 344 341 340 339 336 332 329 328 326 323 322 320 319 319 319 317 318 318 319 320 320 323 324 326 335 341 351 347 338 343 294 199 158 53 2 3 321 228 206 193 194 191 178 185 159 136 133 85 77 122 325 6 209 237 215 176 154 205 231 195 228 240 221 224 231 229 254 281 319 292 262 197 194 195 296 284 256 248 236 244 251 251 259 241 219 213
345 345 345 342 338 333 331 327 326 327 322 320 319 315 314 312 309 307 306 306 308 309 309 312 311 314 322 329 341 345 359 15 278 201 178 320 334 329 323 221 201 196 191 181 153 145 135 128 108 57 77 178 320 39 241 223 137 175 210 225 219 161 239 247 218 228 218 171 229 280 302 288 295 248 214 183 226 263 261 237 222 237 240 242 257 235 205 210
343 345 346 340 335 330 328 325 325 325 320 320 316 314 313 309 306 302 300 298 299 300 301 303 304 307 311 319 326 341 46 348 255 228 272 300 311 304 295 204 196 193 190 173 146 135 122 103 96 99 83 19 204 194 244 233 128 235 249 254 242 195 232 255 198 210 173 154 233 245 285 304 351 299 228 182 213 249 262 249 231 245 236 240 254 209 197 215
341 342 344 339 336 333 332 329 328 328 324 321 316 315 310 306 304 299 298 295 295 298 299 301 305 305 308 318 311 355 98 238 263 269 282 286 283 278 220 196 190 192 190 168 148 139 120 107 138 157 106 348 217 211 235 235 99 250 260 262 257 216 226 248 227 221 196 227 246 250 314 296 279 294 283 215 219 243 263 264 254 263 252 245 249 230 225 225
337 338 340 340 337 336 338 334 334 333 329 325 321 318 311 307 303 298 297 293 295 298 299 302 307 309 313 312 188 3 92 252 273 278 277 272 265 249 198 189 188 193 190 182 171 154 137 140 172 157 137 240 196 185 195 135 346 222 238 248 261 243 239 260 265 253 250 247 247 271 287 272 256 265 291 268 246 242 262 271 265 269 267 247 244 245 241 238
336 336 338 339 337 339 341 338 338 335 332 329 325 322 315 309 303 300 296 292 295 296 298 303 307 311 309 311 106 343 259 259 275 272 264 257 252 227 199 194 192 193 184 189 183 162 159 174 194 186 191 206 170 185 177 174 243 216 226 260 279 277 271 279 271 244 249 244 187 199 258 264 268 181 265 267 260 248 257 270 274 272 270 251 243 246 241 242
337 337 337 338 340 342 343 342 340 338 336 333 329 326 317 310 305 300 295 292 291 291 296 298 305 309 289 176 100 272 262 263 258 246 247 243 242 219 206 204 197 195 181 179 180 171 179 193 186 163 158 152 167 194 158 172 214 187 202 275 264 276 282 259 264 249 245 257 188 196 253 264 302 74 261 265 253 190 265 277 277 252 266 260 248 248 240 241
336 338 338 339 342 343 349 347 343 342 340 337 332 325 317 311 305 298 294 290 287 287 289 290 299 302 272 158 188 254 260 252 241 237 241 241 241 221 214 215 204 199 182 173 191 192 194 182 151 112 148 185 169 186 213 201 181 117 127 299 279 297 296 228 249 262 227 265 203 188 254 281 318 154 249 260 255 49 294 285 283 261 260 265 261 257 242 237
332 333 336 340 344 350 357 352 349 349 345 341 332 323 317 308 300 295 291 286 284 283 280 282 285 275 271 191 227 249 257 250 243 242 245 244 235 217 215 217 211 209 197 186 205 206 200 169 144 133 214 168 136 227 239 215 84 32 63 316 295 331 310 243 234 258 182 224 186 158 262 289 244 217 244 259 282 321 278 274 282 275 263 265 268 267 252 242
335 337 343 348 354 359 360 357 356 353 348 343 334 327 318 307 298 292 288 284 281 278 274 273 268 243 243 267 249 254 258 253 250 251 250 244 231 219 212 206 205 213 216 211 211 205 201 187 161 170 199 151 218 225 136 62 57 293 64 346 301 335 308 267 191 78 155 204 171 151 269 267 248 246 251 264 322 313 285 269 273 279 276 271 265 267 265 255
345 347 352 355 359 360 359 1 359 353 349 344 338 332 320 308 300 293 290 284 276 271 264 257 236 182 165 258 271 278 264 256 253 250 246 237 219 191 183 192 197 201 212 212 199 188 196 195 163 142 198 160 238 272 29 12 12 299 306 184 312 289 284 299 115 108 296 229 156 162 258 253 262 266 262 282 25 286 277 273 273 278 281 280 271 266 269 265
349 350 353 354 356 356 358 0 358 353 349 346 342 335 322 313 308 304 299 285 271 249 227 196 176 153 95 276 273 280 266 260 254 249 245 233 209 177 170 178 184 184 187 188 180 173 176 172 145 138 255 294 39 327 330 348 7 6 285 275 279 209 268 308 284 180 240 270 130 164 240 258 261 269 276 352 57 298 266 273 278 278 279 281 280 272 268 269
347 348 347 349 350 351 353 356 357 353 349 347 343 335 327 324 324 321 314 290 242 192 176 170 173 157 3 278 268 276 264 251 251 253 239 222 211 187 155 151 151 153 156 152 147 144 144 139 118 150 182 299 174 126 27 359 326 332 231 248 249 237 278 318 295 232 225 244 179 214 238 272 261 270 288 304 285 301 286 280 279 276 278 278 278 276 270 270
340 340 339 342 343 344 347 352 354 353 351 347 343 338 336 347 351 355 11 102 121 130 133 156 164 149 272 255 263 278 269 234 236 247 216 203 198 177 148 127 120 126 120 111 124 124 109 93 42 291 57 31 138 101 39 310 273 282 235 236 241 248 265 309 293 292 280 185 210 237 240 254 265 281 294 289 283 288 280 281 281 276 277 275 273 275 274 270
331 334 336 335 336 338 342 347 351 353 352 348 344 339 345 7 29 65 87 108 107 103 99 115 133 120 267 244 250 253 123 143 165 133 159 160 165 170 151 125 126 118 96 69 101 106 15 27 69 358 355 22 124 109 191 237 239 247 248 258 282 267 246 257 266 299 321 265 234 275 261 255 267 276 281 282 282 274 264 273 280 276 274 274 273 273 274 274
326 333 337 334 332 334 337 344 349 352 352 352 349 338 333 6 54 90 87 99 101 109 118 190 163 146 252 252 267 238 117 123 130 126 140 141 152 156 131 116 116 110 103 76 266 160 98 56 69 105 235 223 198 177 208 230 236 238 237 247 276 284 256 240 252 261 291 287 276 274 272 269 271 274 276 277 278 275 267 265 272 278 276 273 274 272 271 273
317 328 335 331 329 329 334 340 346 352 355 356 353 347 6 5 20 19 336 307 218 218 235 219 202 228 277 279 47 152 146 136 128 140 145 146 148 135 100 81 77 74 123 155 191 173 119 138 163 208 224 224 215 207 223 253 341 324 261 263 262 276 274 261 267 264 231 283 273 259 274 280 278 276 277 277 278 275 270 267 270 275 276 275 274 269 270 273
310 322 324 321 321 324 330 335 342 350 354 359 5 19 100 54 26 321 309 291 257 246 255 239 215 245 261 261 127 144 124 65 44 107 150 154 147 141 119 63 99 121 244 150 152 43 103 169 215 228 228 220 209 207 234 273 308 272 257 278 273 256 270 270 271 273 241 237 259 249 272 281 283 277 270 267 267 267 270 276 276 271 274 276 271 271 278 279
294 302 308 311 314 319 323 329 339 346 349 7 30 60 125 146 204 269 284 303 282 254 245 250 237 253 257 263 253 145 55 290 321 42 166 150 127 181 178 88 136 196 218 126 119 54 124 210 236 238 222 87 62 93 132 218 240 250 246 281 282 261 278 276 263 284 326 214 271 280 280 282 278 270 261 256 256 264 273 273 265 264 267 270 272 290 302 292
278 280 289 298 308 318 321 325 333 341 349 15 46 68 89 298 242 225 129 269 291 276 239 238 216 237 258 278 243 177 197 237 254 264 184 150 111 197 143 126 163 166 153 185 190 177 197 239 243 238 191 177 252 117 126 264 245 228 235 271 276 268 280 270 265 317 342 252 276 295 290 282 268 266 264 260 255 260 268 266 260 255 254 267 286 309 297 295
273 276 283 290 305 318 321 323 325 335 348 18 52 45 36 345 217 181 85 237 280 286 253 216 196 207 232 258 202 174 201 217 192 246 186 156 146 160 155 163 153 156 206 205 204 211 239 244 225 195 164 187 231 242 229 260 258 229 218 230 255 258 252 250 279 345 330 287 303 315 301 284 247 259 274 277 277 260 261 262 260 259 254 274 291 286 280 304
276 278 282 289 303 313 318 319 317 335 342 1 50 20 32 31 233 160 35 359 289 293 283 212 196 210 198 133 157 175 178 202 219 249 188 165 151 140 181 172 140 208 215 191 206 249 263 246 146 115 126 151 192 240 228 215 245 271 223 218 237 254 257 260 298 359 352 312 349 0 326 298 197 174 274 289 323 292 258 248 256 287 1 293 278 281 315 43
272 283 288 287 293 301 312 318 312 335 339 324 3 2 18 18 336 173 72 29 292 279 286 217 186 171 175 82 36 168 130 262 278 344 163 176 166 139 156 167 109 217 195 159 176 238 257 274 115 142 130 117 161 241 228 184 212 287 243 216 228 247 262 269 292 340 307 260 307 39 1 285 271 196 254 261 274 273 259 256 274 314 312 286 283 295 353 46
261 270 271 274 289 298 287 277 302 318 329 301 334 351 357 3 359 236 24 10 296 242 126 300 342 113 184 303 351 133 154 289 351 44 105 161 265 106 154 215 185 199 178 143 289 236 207 80 68 109 117 125 177 242 218 163 165 260 247 186 196 225 243 240 238 238 242 279 314 29 139 279 283 231 242 211 188 252 263 274 293 293 281 285 290 319 24 24
259 262 258 260 278 290 253 226 277 294 286 301 323 338 351 353 340 28 50 322 291 99 98 297 114 87 339 11 37 98 231 322 71 323 333 47 292 48 247 232 187 195 188 145 229 250 168 160 154 136 116 161 201 215 183 156 172 248 207 127 147 184 203 167 161 208 279 334 313 276 140 262 280 263 51 103 199 249 267 274 287 294 295 292 297 16 43 355
255 258 256 255 261 269 263 251 249 262 277 291 309 324 341 336 319 66 84 235 292 66 57 347 120 7 356 29 19 50 13 1 101 283 337 47 286 65 181 225 156 182 238 157 230 252 174 192 180 149 146 207 213 203 174 162 188 225 131 96 76 79 77 91 122 127 41 318 258 212 172 245 282 281 104 49 263 258 264 265 278 297 301 294 318 32 32 300
255 255 255 246 245 249 246 250 252 261 272 273 295 317 325 328 35 86 205 240 342 349 264 93 183 313 54 67 347 347 358 314 14 346 6 70 337 30 141 195 107 117 296 330 276 248 227 331 156 160 187 199 166 129 169 160 161 134 103 60 37 42 43 55 55 88 52 289 238 196 190 200 285 299 155 186 234 228 250 310 301 305 304 300 353 31 346 330
269 265 253 233 232 235 211 240 261 257 257 258 291 322 320 345 77 161 230 247 7 289 112 78 318 14 83 111 279 303 108 294 355 68 69 92 19 25 29 202 85 63 360 330 292 271 163 120 229 248 221 134 109 85 22 78 115 103 82 51 24 347 12 26 354 45 154 263 253 207 194 185 240 266 237 269 269 230 215 312 304 301 297 305 6 16 346 6
264 269 256 225 221 223 219 237 271 248 237 229 271 350 27 333 238 201 242 353 343 276 129 211 282 86 104 80 255 232 179 227 217 143 152 146 154 183 203 196 166 344 317 263 282 318 258 211 245 292 253 144 125 106 5 21 91 108 103 104 30 320 349 357 314 62 213 251 271 238 181 212 247 252 260 277 280 261 218 244 280 288 290 322 1 352 346 19
249 251 246 235 219 217 223 223 226 262 186 165 124 39 89 228 246 182 178 275 245 238 96 117 84 117 135 65 269 238 193 209 193 178 172 139 170 248 247 218 173 197 266 219 309 327 287 274 239 243 272 179 151 166 228 245 170 157 157 157 151 181 236 273 261 260 271 272 301 272 170 257 280 275 239 246 265 280 261 242 269 277 294 331 341 331 355 19
246 246 237 234 225 221 222 218 229 242 151 141 101 68 165 233 245 117 182 229 246 314 351 105 74 34 133 200 249 207 200 246 165 151 181 115 135 266 268 246 192 156 193 213 285 212 253 291 222 186 241 177 175 194 182 140 157 176 162 145 156 171 189 232 232 253 276 280 315 305 187 228 268 280 241 238 269 316 333 308 299 310 319 320 324 354 15 17
249 246 243 236 225 222 216 212 223 208 150 128 89 146 216 235 242 177 215 229 271 311 318 60 92 355 295 257 277 243 214 251 104 116 182 172 198 221 230 236 196 156 147 214 257 161 215 267 247 218 154 162 181 212 129 107 133 200 124 118 197 193 176 229 247 234 257 276 273 246 227 232 238 283 280 260 277 325 331 334 8 18 16 34 28 25 28 21
251 251 253 241 228 221 212 207 205 188 160 129 151 215 231 227 185 201 210 196 198 179 310 314 107 209 281 268 305 326 225 224 161 121 213 211 236 226 221 239 192 173 175 190 228 219 237 264 271 28 341 184 185 197 132 137 189 166 120 182 220 171 144 209 279 290 78 261 248 213 252 276 291 289 290 208 96 18 8 13 38 32 28 44 38 34 36 29
251 245 242 236 232 221 209 204 191 179 162 135 216 227 234 217 191 194 187 149 185 130 116 271 212 184 252 267 290 316 344 234 219 187 229 242 254 210 208 254 201 188 201 199 226 239 248 273 261 152 216 244 206 128 38 18 146 134 170 214 194 116 115 126 269 337 296 253 248 215 249 271 281 279 306 20 335 5 25 19 30 23 24 41 44 44 41 34
226 217 237 244 237 220 206 198 181 168 141 138 231 238 231 217 210 189 172 166 233 64 118 224 237 205 216 242 260 242 171 218 266 181 216 251 251 181 172 250 212 192 229 185 182 260 243 275 279 184 196 256 39 54 332 326 117 138 207 236 117 173 229 129 177 233 246 253 255 221 238 251 247 260 284 284 286 352 30 22 31 27 24 34 42 43 37 34
154 127 266 252 230 215 201 186 172 159 142 192 228 241 227 222 225 186 178 166 141 152 199 231 236 235 236 211 226 244 197 193 199 227 221 226 245 202 153 244 234 10 311 135 178 267 73 232 270 18 157 324 52 92 215 250 322 52 325 301 65 176 199 177 178 178 229 253 260 241 235 231 228 241 267 280 309 30 45 37 40 37 34 34 35 37 31 33
145 111 282 297 200 196 185 172 166 169 201 209 225 231 200 224 253 222 207 205 198 210 226 227 211 224 248 229 224 252 230 199 191 207 226 226 268 274 230 223 182 26 2 67 190 269 58 228 247 4 355 289 182 210 198 198 206 161 205 241 238 216 197 243 231 172 218 248 255 252 244 234 233 258 284 309 10 50 64 62 44 29 35 32 28 30 24 23
135 99 277 356 154 170 165 163 182 196 202 222 236 235 230 255 264 283 252 194 207 249 208 187 200 221 242 254 252 238 211 222 206 202 236 248 263 263 282 48 154 165 41 43 274 235 183 238 233 252 269 243 241 234 199 189 179 163 188 208 215 222 229 264 249 209 212 242 244 255 258 247 242 284 303 357 52 59 60 67 57 32 30 27 25 29 27 25
104 132 219 59 161 164 158 175 210 186 207 224 233 233 234 284 252 239 245 135 192 247 8 166 217 226 227 251 262 241 228 244 225 221 244 242 227 236 316 17 64 149 129 257 240 218 145 140 230 244 244 248 264 257 189 175 164 152 206 217 228 231 222 244 251 235 223 237 243 258 261 243 204 250 320 57 74 65 55 69 68 45 31 26 23 22 25 29
130 182 342 149 169 169 164 210 205 201 230 234 291 271 211 216 258 228 164 86 191 202 324 252 230 231 231 238 240 231 230 228 222 227 236 240 236 244 332 352 38 68 357 279 267 290 91 110 249 257 262 287 292 287 241 122 132 201 236 214 215 242 244 244 251 266 253 241 249 258 258 271 308 303 62 85 89 75 64 66 63 51 33 24 20 17 18 15
61 275 320 176 178 181 187 209 205 216 227 231 254 253 239 221 240 250 245 221 197 179 184 236 236 239 243 236 224 230 233 233 245 244 230 238 252 331 14 350 12 83 316 262 254 288 321 218 257 286 292 306 300 293 317 1 13 221 241 239 229 245 269 281 285 286 262 226 235 256 260 247 329 333 14 68 82 82 76 71 71 65 38 21 18 15 12 5
38 303 298 301 223 199 210 205 193 213 225 238 243 246 252 247 233 238 236 230 211 185 220 264 223 196 254 264 128 252 223 200 247 282 303 257 269 14 20 353 8 73 305 39 58 268 277 242 251 277 271 264 270 269 275 310 280 241 287 309 316 244 246 282 291 262 253 231 230 252 268 260 294 310 318 12 55 81 89 84 88 86 69 51 28 11 7 5
86 85 308 318 341 348 234 195 141 205 216 230 240 243 244 248 264 208 188 228 236 198 218 254 181 152 249 233 232 260 246 210 211 252 273 265 268 324 4 359 40 73 141 61 51 49 282 250 235 249 256 260 271 275 285 296 278 270 280 288 289 269 247 255 259 246 263 272 256 255 267 274 284 287 294 15 45 65 82 81 83 83 82 77 26 3 4 1
104 166 175 238 331 296 253 290 292 235 239 234 226 231 234 240 260 250 192 226 241 182 213 240 202 204 224 219 231 253 251 232 220 232 252 253 254 304 313 99 50 12 22 55 34 74 154 257 240 245 256 262 273 280 289 293 281 275 280 279 278 276 263 252 252 255 273 282 264 255 265 271 273 274 289 43 46 66 85 89 93 86 48 12 353 349 360 0
40 169 197 106 294 228 224 243 310 278 268 265 246 250 251 245 248 251 248 308 341 118 240 251 221 216 220 230 242 240 241 241 224 208 231 252 256 318 332 31 44 15 34 26 352 89 150 261 257 261 271 274 280 287 293 295 287 281 282 282 284 283 271 262 262 267 269 265 265 272 272 271 272 266 123 71 34 73 109 155 181 207 288 322 343 350 2 357
28 86 315 1 68 176 253 355 19 356 269 261 273 259 255 255 254 247 188 11 313 279 221 241 246 227 219 229 231 224 243 260 265 250 206 197 211 209 297 291 299 37 52 38 333 25 173 258 264 269 283 285 284 288 294 295 291 285 282 279 276 271 267 267 269 269 262 257 263 271 268 268 276 155 120 99 33 97 148 193 230 252 284 304 338 354 1 350
28 65 342 35 59 40 8 9 34 30 296 257 250 252 247 250 259 258 135 250 265 259 224 254 275 277 228 213 215 224 235 264 294 288 248 179 235 198 199 232 213 13 19 41 311 297 257 280 315 340 308 288 282 284 288 292 289 286 287 281 268 262 261 263 265 265 262 262 262 262 263 265 281 95 115 114 86 317 155 215 237 233 259 299 334 349 348 344
66 60 106 88 45 177 110 45 95 109 260 233 219 244 249 246 258 280 67 49 255 184 91 33 333 340 11 245 235 245 296 95 116 306 14 346 282 313 357 229 103 359 328 161 245 303 291 301 337 340 291 273 279 287 295 304 300 287 276 266 262 260 258 257 258 258 259 265 268 266 267 261 129 104 65 115 119 316 255 261 264 235 238 279 318 331 335 332
115 40 89 104 39 220 142 111 126 160 212 227 211 245 235 198 28 20 174 89 88 101 99 71 19 10 12 318 19 104 338 351 161 201 260 248 258 263 254 258 260 255 249 231 273 262 245 265 291 284 273 275 280 288 323 340 306 282 262 254 254 256 257 257 260 263 263 267 272 270 270 178 136 112 49 13 328 308 253 274 288 263 248 260 283 307 322 315
Height
836 836 835 835 834 834 833 833 833 832 832 832 831 831 831 831 830 830 829 828 828 827 827 826 826 825 825 824 823 822 821 820 820 820 819 817 815 816 816 816 817 817 818 819 820 820 821 822 822 823 823 825 829 829 829 830 831 832 838 845 846 848 846 838 836 835 830 824 821 820 823 824 820 818 816 815 815 813 811 810 809 806 802 799 796 795 796 796
835 835 834 834 834 833 833 833 832 832 832 831 831 830 830 830 829 829 828 828 827 827 827 826 825 825 824 824 823 822 821 819 819 819 816 815 815 815 815 815 816 817 818 819 819 820 821 823 823 823 824 827 830 830 829 830 830 834 843 847 842 839 835 830 827 827 826 822 819 820 823 824 819 817 817 815 813 813 811 806 807 804 798 796 794 794 794 795
835 835 834 834 833 833 832 832 831 831 831 830 830 829 829 829 828 828 827 827 826 826 826 825 825 824 824 823 822 822 820 819 818 816 814 814 814 814 814 814 815 816 817 818 819 819 820 821 822 824 826 828 831 832 830 831 832 834 842 843 835 828 828 829 826 823 822 820 820 820 822 823 818 817 817 815 813 813 809 803 804 802 795 792 791 791 792 794
835 834 834 833 833 832 832 831 831 830 830 830 829 829 828 828 827 827 826 826 825 825 824 824 824 823 823 822 822 821 818 819 817 813 813 813 813 813 813 813 814 815 816 817 818 819 820 821 822 824 826 829 833 834 831 830 832 835 837 832 826 828 827 823 821 820 822 825 823 821 822 820 816 818 816 814 816 811 802 798 798 795 790 789 789 790 791 792
834 833 833 833 832 832 831 830 830 830 829 829 828 828 827 827 826 826 825 825 824 824 823 823 822 822 822 821 822 820 820 825 818 810 812 812 812 812 812 812 813 814 815 816 817 819 820 821 822 825 828 830 833 832 830 830 831 833 830 823 823 829 825 817 818 821 823 825 824 822 820 815 815 817 813 813 816 805 791 791 791 788 787 787 787 788 789 790
833 833 833 832 832 831 830 830 829 829 828 828 827 827 826 826 825 825 824 824 823 823 822 822 821 821 821 820 822 819 823 828 815 809 812 811 811 812 811 812 812 813 814 815 817 818 819 821 823 826 829 830 832 830 829 831 832 830 826 823 822 825 823 817 818 820 822 823 821 820 817 816 817 812 807 809 808 793 782 785 787 785 786 786 786 787 787 787
833 832 832 831 831 830 830 829 828 828 828 827 827 826 826 825 824 824 823 823 822 822 821 821 820 820 820 820 820 819 824 821 809 809 811 809 810 810 810 811 811 812 813 814 816 817 819 822 823 827 829 829 831 829 829 831 832 831 827 823 822 823 822 818 819 820 821 821 818 819 818 815 815 811 804 801 797 787 779 782 784 783 784 786 785 784 783 783
832 832 831 831 830 829 829 828 828 827 827 826 826 825 825 824 823 822 822 821 821 821 820 820 820 819 819 819 819 822 823 814 807 809 808 808 809 809 810 810 810 812 812 813 814 816 819 821 823 827 827 827 828 828 829 830 831 832 826 821 822 822 819 817 820 820 819 818 817 821 817 808 809 812 803 789 785 784 780 779 781 782 782 784 782 780 780 780
832 831 831 830 830 829 828 827 827 827 826 826 825 824 823 823 822 821 821 820 820 820 819 819 819 818 819 818 820 823 817 808 806 807 806 807 807 808 809 809 810 810 811 813 814 815 817 820 821 822 822 824 827 827 828 829 827 825 822 821 821 819 817 817 817 816 817 814 815 818 812 804 805 811 800 778 776 781 780 778 779 781 780 779 778 776 776 776
832 831 830 830 829 828 828 827 827 826 825 825 824 823 822 821 821 820 819 819 818 818 818 818 817 818 818 817 821 820 808 803 806 805 806 806 806 807 807 808 809 809 811 812 813 814 814 816 817 818 820 824 826 827 828 827 824 822 823 822 820 819 818 818 815 813 815 811 811 812 806 801 805 812 796 771 772 779 778 777 777 779 776 773 774 773 773 773
831 830 830 829 829 828 827 827 826 826 825 824 823 822 821 820 819 818 818 817 817 817 817 817 816 817 817 817 820 814 803 803 805 803 805 805 804 806 806 807 807 808 810 811 812 812 812 813 815 818 821 824 825 828 828 824 822 823 824 821 818 818 816 816 814 811 813 808 806 809 807 804 807 810 790 768 773 777 776 775 773 775 773 769 769 769 770 769
831 830 830 829 828 828 827 827 826 825 824 823 822 821 820 818 817 816 816 816 815 816 815 815 816 816 816 817 813 806 801 803 803 803 804 803 804 805 805 807 807 808 808 810 811 810 812 814 814 817 820 822 824 826 824 822 824 823 825 823 818 818 813 807 806 808 811 807 804 809 810 805 801 796 777 768 774 776 777 775 770 770 768 766 766 766 766 764
831 830 830 829 828 828 827 826 825 825 823 822 821 819 818 816 815 814 814 814 813 814 814 814 815 815 817 814 804 800 801 802 802 803 803 802 803 804 805 806 806 808 808 809 810 810 812 813 814 816 818 820 823 822 820 823 825 823 826 826 821 822 814 802 804 809 809 806 802 805 809 800 789 781 770 771 776 775 776 773 770 767 764 764 764 763 761 758
831 830 830 829 829 828 827 826 825 824 823 822 820 818 816 814 814 812 811 811 811 812 812 813 814 814 816 809 799 799 800 800 801 801 801 802 803 804 805 806 806 807 808 809 810 810 811 813 815 817 818 820 819 819 822 825 825 823 827 827 829 829 812 799 807 812 806 804 803 804 809 800 783 774 769 773 776 776 775 770 769 767 763 762 760 760 758 754
831 830 830 830 829 828 827 826 825 824 822 821 818 817 815 813 812 810 810 809 809 810 810 812 813 813 816 807 798 799 799 798 800 799 800 801 802 804 804 805 806 807 808 809 809 810 811 813 815 817 819 819 818 821 826 827 824 825 827 825 830 830 815 803 804 807 801 801 805 805 804 799 786 774 769 775 777 777 776 770 770 768 763 760 756 756 754 749
831 830 830 829 829 828 827 826 825 823 822 819 817 815 813 812 811 809 808 807 808 809 810 812 812 813 816 807 798 798 798 797 798 798 799 800 801 803 804 805 806 807 808 809 810 810 811 813 817 820 819 818 821 824 829 832 828 828 829 825 825 825 822 813 801 798 799 800 803 802 798 793 785 774 770 775 776 776 775 769 768 766 760 757 754 751 748 745
830 830 830 829 829 828 827 826 825 823 821 819 816 814 813 812 810 809 808 808 809 809 810 811 811 814 811 802 798 798 796 797 797 797 798 799 801 802 804 806 807 808 809 810 810 811 812 815 820 821 820 822 825 825 833 838 830 825 829 827 825 823 823 818 803 794 799 800 800 801 799 791 782 776 775 773 772 777 774 764 763 762 757 753 750 747 743 742
829 829 829 829 828 827 827 826 825 822 821 818 816 814 813 812 811 810 809 809 810 810 812 812 812 817 809 797 798 797 795 797 796 797 798 798 800 802 802 804 807 808 809 812 813 813 815 819 822 821 821 825 826 827 832 830 818 815 820 822 823 824 823 822 810 797 794 794 797 802 800 792 786 782 778 772 770 773 770 763 760 756 753 749 746 744 739 738
829 829 828 828 827 827 826 825 824 822 820 818 815 814 813 812 811 811 811 811 811 809 811 811 810 813 806 796 796 796 795 797 796 797 797 798 800 802 802 804 806 808 811 814 815 816 817 820 824 824 822 820 820 823 820 812 810 815 819 820 821 821 819 817 809 799 797 796 796 799 791 784 785 781 776 771 767 767 764 760 757 753 749 744 742 740 736 735
828 828 828 827 827 827 826 825 824 822 820 817 815 813 813 815 813 812 812 811 809 806 806 806 804 803 799 795 795 796 796 796 796 797 797 798 799 801 803 805 808 810 812 814 815 818 819 822 824 819 813 812 813 816 813 811 817 822 822 822 822 822 816 810 805 798 800 800 794 790 783 778 780 777 773 769 765 762 756 754 756 751 745 739 739 735 732 732
827 827 827 827 826 826 825 825 824 822 821 819 816 814 817 821 819 818 817 810 804 803 803 802 801 800 795 794 795 795 796 796 796 797 798 798 799 801 804 807 810 812 815 817 818 820 821 824 821 810 806 810 812 814 816 817 819 820 822 823 824 825 814 805 803 796 799 803 794 788 784 779 779 774 769 765 762 756 749 751 753 748 741 735 733 730 729 729
826 826 826 826 825 825 825 824 824 823 822 820 818 818 821 823 822 822 822 815 805 801 801 800 800 799 793 794 795 795 797 797 797 798 798 799 800 801 804 808 810 811 816 819 818 821 826 825 817 808 810 814 814 816 817 817 818 819 823 825 824 822 812 805 802 798 803 804 792 788 786 780 775 768 760 757 755 751 746 749 748 742 738 730 726 730 731 728
824 824 825 825 825 825 824 824 824 823 822 821 820 821 822 822 822 822 823 822 811 800 798 798 798 797 794 794 794 795 798 798 797 797 797 798 800 802 803 806 810 812 815 815 814 818 822 818 810 808 813 815 814 817 817 817 820 819 821 825 822 817 813 809 801 799 806 803 794 794 787 775 767 759 753 752 752 750 745 744 742 737 734 729 728 733 733 731
822 823 823 823 824 824 824 824 823 823 823 821 821 821 821 821 821 822 821 820 813 801 795 795 796 794 793 792 791 793 796 797 796 795 795 796 799 802 802 804 809 812 812 811 811 812 811 809 808 810 813 815 815 817 818 818 819 818 820 822 816 810 811 809 804 804 806 800 799 798 776 757 756 754 749 747 749 749 745 740 732 729 732 732 731 730 731 735
821 821 821 822 823 822 823 823 822 823 823 822 822 821 821 821 820 821 820 817 812 802 794 793 794 793 790 790 791 792 794 795 794 795 795 795 797 800 802 804 806 807 808 811 815 815 810 807 809 810 813 818 818 816 816 817 818 817 814 811 806 804 806 807 808 814 810 800 801 801 780 758 753 754 746 741 744 743 738 732 724 726 732 731 728 726 731 737
820 820 820 821 821 821 822 821 822 823 822 822 822 821 821 820 820 820 820 820 813 798 792 793 792 791 790 791 793 793 793 794 795 795 795 795 796 796 800 804 804 805 807 811 815 813 808 808 809 809 812 818 819 815 811 813 819 817 808 802 803 806 808 810 812 816 811 803 804 806 798 779 758 749 746 743 746 739 729 727 728 729 730 727 726 727 733 738
818 819 820 821 820 820 820 820 821 821 821 822 821 821 821 819 821 819 819 825 812 791 789 794 792 791 790 793 794 792 794 795 795 796 796 796 796 795 798 802 803 805 807 809 809 805 803 806 810 810 811 815 816 812 807 811 816 813 807 803 802 806 809 812 814 815 812 809 808 807 806 798 769 749 748 746 744 738 727 727 731 731 727 724 725 729 737 739
817 818 818 820 820 820 819 819 820 820 821 821 820 821 820 819 821 817 823 831 808 784 787 792 791 791 791 794 795 794 797 797 795 796 797 797 796 796 798 799 799 800 803 805 803 800 799 801 803 805 810 812 808 803 803 808 807 805 811 812 808 809 811 813 813 815 819 814 810 806 805 801 771 747 754 753 744 737 728 726 727 728 727 723 724 733 741 741
815 815 816 818 818 818 819 819 819 819 820 820 820 821 819 820 819 818 833 833 799 781 790 791 790 793 793 795 796 796 798 797 796 797 797 798 797 798 800 800 799 799 802 802 799 798 799 800 800 800 802 800 796 798 801 800 800 805 815 814 812 815 815 819 815 812 817 811 805 804 801 795 765 740 751 756 745 737 729 728 728 726 726 724 727 736 742 741
813 813 815 816 817 817 818 818 818 818 818 819 820 820 819 820 819 827 840 828 797 789 793 790 792 795 795 795 796 798 798 797 799 799 798 799 798 798 801 802 802 801 804 806 801 799 800 805 806 798 793 790 791 804 809 804 804 810 811 805 808 815 815 820 818 813 815 805 795 794 791 793 776 750 748 749 743 740 732 730 730 727 725 724 731 740 741 738
811 812 813 814 816 816 816 817 816 816 817 818 820 820 820 821 824 834 833 813 798 797 793 792 797 797 796 796 795 797 798 797 800 799 798 800 800 800 801 801 801 803 805 804 801 801 802 805 803 793 790 792 792 802 812 814 812 809 806 803 806 810 812 818 818 816 815 799 790 794 793 795 782 756 747 743 739 742 740 734 731 730 726 725 734 741 740 737
810 811 812 813 814 815 816 816 815 816 816 818 820 819 822 827 828 827 818 804 800 797 791 794 799 796 798 799 795 796 798 797 798 798 797 801 802 800 800 797 796 799 801 800 797 796 797 798 798 792 791 793 791 797 809 814 812 809 808 809 812 814 815 815 814 817 812 796 796 804 800 793 771 748 746 741 731 734 738 735 732 731 730 731 738 740 739 740
809 810 811 812 812 813 814 815 815 816 816 818 821 820 826 833 826 815 809 803 799 794 791 794 798 799 800 797 794 797 799 795 796 798 797 801 804 799 797 797 796 795 797 802 799 793 791 793 797 793 787 788 789 792 797 799 805 809 805 806 811 814 816 813 811 816 808 795 801 807 799 787 764 744 740 735 726 728 733 736 737 736 738 740 742 742 743 743
808 809 810 810 811 812 812 814 815 816 817 818 821 823 829 829 816 807 806 800 794 791 792 794 797 799 800 797 795 796 796 792 794 797 797 801 804 798 792 795 799 797 796 801 801 796 795 790 786 784 779 782 784 781 780 785 799 805 797 799 802 797 800 803 799 798 792 788 801 808 795 778 758 741 735 733 732 734 737 740 742 743 746 747 745 744 746 746
806 807 808 808 809 810 811 813 815 816 818 819 821 826 825 818 809 806 803 797 793 791 792 795 796 797 798 797 797 795 793 791 795 798 798 799 798 793 787 786 792 796 796 799 797 796 799 786 775 781 781 781 781 778 779 783 793 802 800 799 796 786 785 792 790 783 784 790 797 798 786 767 749 736 732 735 736 737 740 741 740 744 746 746 746 748 751 753
805 805 806 806 806 808 809 811 813 816 818 820 824 823 814 806 803 802 798 795 794 792 793 796 796 797 798 795 796 797 794 794 797 796 797 799 795 791 788 782 785 789 788 791 789 788 791 781 775 785 785 782 782 780 781 781 782 796 802 792 788 787 782 787 789 784 790 794 782 775 773 762 749 736 728 731 733 734 738 739 742 747 747 747 752 757 760 761
802 802 803 803 804 806 807 809 812 815 817 821 821 812 803 798 796 795 795 795 796 794 795 800 797 795 797 794 795 799 796 796 798 796 796 798 791 787 786 781 782 783 778 780 782 780 784 779 773 778 778 782 791 786 782 785 783 789 792 783 784 790 786 789 795 793 796 795 776 764 762 759 755 744 730 729 733 734 736 740 747 750 750 755 762 767 769 769
800 801 800 799 800 803 805 808 810 813 818 820 816 806 799 796 793 792 793 794 795 795 797 802 797 792 796 795 794 798 798 798 799 798 796 794 787 781 781 777 778 783 779 779 782 781 784 783 774 772 776 782 791 788 782 787 787 784 784 781 784 788 786 790 796 795 794 791 778 764 758 758 756 744 732 729 731 736 740 746 755 758 760 767 771 775 776 774
799 800 798 795 796 800 803 806 808 812 816 815 811 804 796 793 791 791 792 792 794 796 798 799 796 794 796 795 795 797 799 798 799 799 796 792 786 779 778 777 778 784 784 782 783 782 784 788 779 774 780 783 784 785 782 782 787 789 787 785 785 786 784 784 787 787 785 783 776 767 760 754 744 737 735 733 735 744 749 754 765 772 775 777 777 779 779 776
798 798 796 794 795 797 801 805 808 809 809 804 801 798 794 792 792 791 791 792 792 794 797 796 796 797 795 793 795 796 797 798 796 797 795 790 785 779 778 778 778 784 787 784 785 785 786 791 787 779 782 784 779 778 775 773 778 785 786 786 787 785 783 783 783 779 776 777 774 770 764 750 736 735 736 736 747 758 758 763 775 780 781 781 781 781 779 777
797 796 795 794 795 797 801 805 805 803 802 798 795 794 792 792 792 791 792 793 792 792 794 795 795 796 796 795 795 795 797 797 794 795 794 789 787 785 782 781 779 782 786 784 784 786 786 790 790 783 780 779 772 769 770 771 772 776 779 779 779 779 781 785 783 773 771 774 772 770 767 752 738 735 734 743 762 771 769 774 782 784 784 784 783 783 782 781
796 796 795 795 796 797 799 801 800 799 799 796 793 792 792 792 791 791 792 794 794 793 794 796 796 797 797 797 797 797 799 799 795 795 794 789 786 785 783 785 784 782 784 785 785 786 788 790 790 783 778 774 770 770 773 774 773 775 776 774 774 777 779 782 781 774 772 774 772 773 771 755 740 735 740 758 776 779 779 782 784 786 787 786 785 784 784 784
797 796 795 795 797 797 798 799 797 797 796 793 790 791 792 792 792 792 792 794 795 795 796 797 796 797 796 795 796 798 799 799 795 790 791 788 785 787 789 788 786 785 784 785 786 787 790 792 790 784 777 774 770 769 774 778 779 780 778 776 777 778 775 775 777 776 776 774 770 772 767 753 745 744 752 770 780 781 784 786 786 788 788 787 787 785 784 783
800 799 797 796 796 797 798 796 795 795 795 793 793 793 792 792 792 791 793 793 793 794 797 796 794 795 795 794 796 797 798 799 794 789 790 789 787 793 796 790 787 788 788 788 789 792 793 791 790 791 787 782 778 773 774 777 779 781 779 776 777 777 774 776 778 780 781 773 767 770 764 752 750 750 752 764 775 781 786 788 789 791 790 790 789 787 786 786
801 800 798 796 795 796 796 793 793 795 795 794 795 794 793 792 789 788 792 793 791 793 795 794 794 795 796 797 798 798 798 800 799 795 794 793 791 794 798 796 793 792 794 794 793 795 796 791 790 794 793 788 784 779 776 778 781 784 782 779 780 780 779 781 782 781 777 766 762 768 763 752 752 752 750 758 771 780 787 789 790 791 791 791 790 789 788 787
799 797 798 798 797 797 797 795 795 795 795 796 796 794 793 793 789 788 790 791 790 792 793 794 795 797 798 798 799 799 797 798 801 798 796 795 792 794 799 801 799 798 798 797 796 796 799 796 791 791 790 786 782 778 778 782 785 785 783 781 782 781 781 785 786 781 773 767 766 764 758 755 755 751 751 762 774 780 786 789 790 790 790 789 788 788 787 785
799 796 797 799 797 797 797 796 797 796 795 797 795 790 789 791 790 790 790 790 791 792 792 793 794 796 797 796 797 798 794 793 797 797 796 796 793 795 801 800 799 800 798 798 799 799 802 800 792 789 789 785 783 781 781 785 787 785 784 783 781 780 781 784 782 775 771 772 767 756 754 759 756 750 756 770 779 783 786 789 788 787 787 787 786 785 784 782
799 799 800 800 799 798 797 798 800 800 798 798 795 789 787 791 792 792 791 791 792 792 793 794 793 793 793 792 795 798 795 793 795 794 794 797 797 796 797 798 802 803 799 800 801 799 804 802 791 790 792 787 786 787 786 789 789 787 787 786 784 783 781 780 777 772 773 774 764 755 757 757 752 756 770 780 782 784 786 786 786 786 785 785 784 783 781 780
801 803 803 803 803 804 804 804 805 803 800 799 798 792 791 793 794 792 792 794 795 793 794 795 793 791 793 794 796 800 799 798 797 793 792 796 800 799 797 797 802 805 803 804 803 801 807 805 793 794 798 794 792 791 790 792 792 788 788 787 786 783 779 777 775 770 772 770 762 761 761 754 755 769 781 784 783 783 784 785 785 785 785 783 782 781 780 779
803 804 805 806 808 810 811 809 807 806 803 801 798 794 793 794 793 793 794 797 797 794 793 796 796 796 798 800 799 799 800 802 803 802 802 801 800 802 802 799 801 806 806 807 805 802 806 804 795 797 804 800 793 791 791 792 792 790 790 787 783 780 777 775 772 767 767 765 761 762 759 757 769 782 782 782 783 782 783 784 784 784 784 782 781 779 778 777
804 805 806 807 807 809 812 812 810 808 806 803 800 795 793 795 797 798 799 801 802 800 802 807 808 806 805 805 805 805 806 808 810 811 813 812 807 807 807 804 806 810 808 807 806 804 806 807 801 804 811 802 791 793 795 794 795 796 793 786 779 777 775 770 765 761 761 760 759 760 759 763 778 786 782 781 784 783 783 783 782 782 781 780 779 778 776 775
805 805 806 807 807 807 811 813 812 808 804 803 802 799 799 802 804 803 801 804 808 808 809 813 812 810 810 808 808 812 813 812 811 811 812 813 811 810 809 807 809 811 810 808 808 806 807 811 810 811 812 801 794 798 800 802 805 797 783 774 770 769 769 765 760 758 760 764 764 763 767 776 783 784 782 782 782 781 782 780 779 779 779 778 778 776 775 774